Regional Weather Roundup
Issued by NWS

Home | Current Version | Previous Version | Graphics & Text | Print | Product List | Glossary On
Versions: 1 2 3 4 5 6 7 8 9 10 11 12 13 14 15 16 17 18 19 20 21 22 23 24 25 26 27 28 29 30 31 32 33 34 35 36 37 38 39 40 41 42 43 44 45 46 47 48 49 50
000
ASUS43 KLSX 301859
RWRMO

WEATHER SUMMARY FOR MISSOURI
NATIONAL WEATHER SERVICE SPRINGFIELD MO
100 PM CST FRI JAN 30 2015

NOTE: "FAIR" INDICATES FEW OR NO CLOUDS BELOW 12,000 FEET WITH NO
       SIGNIFICANT WEATHER AND/OR OBSTRUCTIONS TO VISIBILITY.
       CURRENT SKY AND/OR WEATHER CONDITIONS ARE NOT AVAILABLE FOR
       CHILLICOTHE AND FARMINGTON.

MOZ001>031-035>038-043-044-053-054-302000-
...NORTHERN AND WESTERN MISSOURI...

CITY           SKY/WX    TMP DP  RH WIND       PRES   REMARKS
KANSAS CTY INT CLOUDY    36  20  52 SW6       30.49F
KANSAS C DTWN  PTSUNNY   36  19  50 VRB3      30.51F
LEE`S SUMMIT   MOSUNNY   36  18  48 CALM      30.50F
ST JOSEPH      PTSUNNY   33  18  53 S5        30.51F WCI  29
CHILLICOTHE      N/A     35  19  52 S6        30.52F
KIRKSVILLE     SUNNY     32  17  54 CALM      30.50F

$$
MOZ066>068-077>081-088>096-101>105-302000-
...SOUTHWEST MISSOURI...

CITY           SKY/WX    TMP DP  RH WIND       PRES   REMARKS
SPRINGFIELD    SUNNY     43  16  33 NE3       30.46F
JOPLIN         SUNNY     41  23  48 CALM      30.50F

$$
MOZ032>034-039>042-045>050-055>058-069>072-302000-
...CENTRAL MISSOURI...

CITY           SKY/WX    TMP DP  RH WIND       PRES   REMARKS
COLUMBIA       SUNNY     36  18  48 CALM      30.50F
JEFFERSON CITY SUNNY     35  19  52 CALM      30.52F
ROLLA          SUNNY     36  17  46 CALM      30.46F
SEDALIA        MOSUNNY   36  20  52 CALM      30.52F
WARRENSBURG    PTSUNNY   34  21  60 CALM      30.51F
OSAGE BEACH    SUNNY     37  18  44 CALM      30.49F

$$
MOZ051-052-059>065-302000-
...EAST CENTRAL MISSOURI...

CITY           SKY/WX    TMP DP  RH WIND       PRES   REMARKS
ST LOUIS INTL  NOT AVBL
SPIRIT OF STL  MOSUNNY   36  16  44 E5        30.51F
ST CHARLES     SUNNY     36  20  52 SE3       30.51F

$$
MOZ072>076-082>087-097>100-106>115-302000-
...SOUTH CENTRAL AND SOUTHEAST MISSOURI...

CITY           SKY/WX    TMP DP  RH WIND       PRES   REMARKS
CAPE GIRARDEAU SUNNY     41  23  48 N5        30.49F
FARMINGTON     SUNNY     37  19  48 NE5       30.51F
POPLAR BLUFF   SUNNY     40  23  50 E6        30.49F
WEST PLAINS    SUNNY     43  17  35 CALM      30.46

$$


USA.gov is the U.S. government's official web portal to all federal, state and local government web resources and services.